Total_Precipitation_Accumulation
0.47 0.31 0.50 0.54 0.44 0.39 0.38 0.41 0.42 0.43 0.44 0.41 0.37 0.32 0.26 0.22 0.19 0.19 0.20 0.17 0.14 0.12 0.12 0.15 0.17 0.21 0.20 0.23 0.28 0.35 0.46 0.52 0.42 0.36 0.37 0.36 0.31 0.39 0.62 0.76 0.79 0.85 0.62
0.42 0.31 0.51 0.54 0.45 0.39 0.41 0.46 0.47 0.48 0.48 0.44 0.40 0.34 0.31 0.24 0.23 0.21 0.16 0.16 0.13 0.12 0.12 0.13 0.18 0.20 0.20 0.25 0.31 0.38 0.45 0.50 0.47 0.46 0.56 0.59 0.46 0.51 0.64 0.72 0.81 0.79 0.57
0.42 0.34 0.41 0.54 0.53 0.48 0.47 0.48 0.50 0.52 0.53 0.55 0.52 0.46 0.42 0.33 0.27 0.22 0.18 0.15 0.14 0.15 0.18 0.18 0.19 0.18 0.22 0.27 0.32 0.40 0.43 0.51 0.57 0.61 0.83 1.15 0.76 0.54 0.55 0.61 0.53 0.51 0.47
0.39 0.37 0.48 0.61 0.62 0.62 0.62 0.64 0.63 0.60 0.57 0.61 0.58 0.53 0.47 0.42 0.35 0.35 0.34 0.24 0.20 0.19 0.22 0.22 0.20 0.21 0.28 0.33 0.37 0.38 0.39 0.52 0.66 0.63 0.87 1.12 1.02 0.66 0.64 0.72 0.60 0.50 0.48
0.44 0.39 0.55 0.70 0.64 0.65 0.70 0.81 0.82 0.77 0.69 0.65 0.63 0.61 0.55 0.50 0.49 0.54 0.44 0.34 0.31 0.30 0.30 0.32 0.29 0.28 0.34 0.39 0.39 0.37 0.44 0.59 0.68 0.61 0.76 0.92 1.18 0.93 0.73 0.80 0.76 0.61 0.50
0.38 0.37 0.56 0.81 0.74 0.73 0.77 0.93 0.86 0.82 0.81 0.75 0.76 0.75 0.72 0.67 0.66 0.63 0.56 0.52 0.45 0.41 0.39 0.40 0.39 0.36 0.40 0.42 0.42 0.47 0.59 0.66 0.63 0.79 0.85 0.89 1.09 0.94 0.70 0.71 0.67 0.59 0.52
0.43 0.41 0.52 0.79 0.75 0.71 0.75 0.87 0.86 0.87 0.93 0.85 0.81 0.83 0.82 0.79 0.80 0.81 0.77 0.67 0.62 0.56 0.54 0.51 0.46 0.40 0.41 0.46 0.47 0.53 0.63 0.56 0.63 0.89 0.83 0.97 0.98 0.81 0.60 0.57 0.61 0.62 0.62
0.57 0.45 0.47 0.67 0.67 0.66 0.74 0.83 0.88 0.88 0.86 0.78 0.80 0.85 0.86 0.85 0.88 0.90 0.90 0.80 0.75 0.70 0.68 0.65 0.61 0.53 0.47 0.48 0.51 0.52 0.57 0.50 0.47 0.68 0.76 0.93 0.99 0.85 0.57 0.50 0.57 0.58 0.68
0.91 0.75 0.63 0.59 0.58 0.63 0.76 0.84 1.01 1.06 0.91 0.79 0.78 0.78 0.77 0.77 0.80 0.85 0.87 0.81 0.76 0.77 0.76 0.70 0.65 0.62 0.59 0.54 0.52 0.52 0.55 0.53 0.54 0.61 0.61 0.84 0.93 0.80 0.57 0.51 0.51 0.57 0.68
0.88 0.86 0.81 0.80 0.74 0.74 0.77 0.94 1.22 1.35 1.18 0.93 0.81 0.77 0.78 0.73 0.72 0.79 0.75 0.76 0.78 0.84 0.86 0.83 0.76 0.67 0.65 0.63 0.61 0.57 0.56 0.46 0.44 0.47 0.51 0.63 0.82 0.71 0.56 0.45 0.42 0.45 0.57
0.82 0.83 0.81 0.85 0.88 1.00 1.01 1.07 1.32 1.49 1.45 1.09 0.88 0.86 0.77 0.61 0.73 0.77 0.64 0.76 0.83 0.94 0.97 0.97 0.87 0.79 0.79 0.73 0.69 0.66 0.52 0.35 0.41 0.46 0.52 0.61 0.79 0.79 0.61 0.44 0.37 0.37 0.39
0.71 0.71 0.72 0.74 0.74 0.80 0.86 1.18 1.39 1.31 1.38 1.10 1.05 0.97 0.88 0.89 0.92 0.79 0.69 0.80 0.94 1.04 1.00 0.97 0.98 0.92 0.79 0.61 0.54 0.53 0.34 0.28 0.34 0.37 0.40 0.58 0.85 0.89 0.68 0.47 0.36 0.32 0.28
0.56 0.50 0.47 0.52 0.53 0.58 0.67 0.85 1.13 1.39 1.44 1.40 1.34 1.25 1.17 1.06 0.88 0.77 0.76 0.75 0.85 0.93 0.87 0.93 0.91 0.78 0.69 0.60 0.56 0.47 0.36 0.33 0.35 0.34 0.46 0.61 0.82 0.88 0.74 0.54 0.37 0.29 0.27
0.57 0.57 0.48 0.42 0.46 0.46 0.50 0.64 0.88 1.11 1.26 1.28 1.19 1.10 1.27 1.20 0.96 0.85 0.92 0.92 0.89 0.92 1.01 1.03 0.95 0.85 0.76 0.65 0.63 0.55 0.48 0.47 0.41 0.39 0.54 0.52 0.66 0.77 0.81 0.65 0.45 0.33 0.28
0.56 0.62 0.56 0.43 0.37 0.42 0.45 0.51 0.60 0.84 1.00 1.00 1.13 1.09 1.13 1.11 0.97 0.88 0.88 1.02 0.97 0.97 1.06 1.13 0.99 0.90 0.88 0.83 0.77 0.70 0.64 0.59 0.57 0.43 0.45 0.49 0.54 0.66 0.82 0.82 0.66 0.43 0.33
0.50 0.53 0.54 0.49 0.47 0.46 0.43 0.43 0.48 0.54 0.71 0.74 0.75 0.74 0.94 1.04 1.02 1.03 0.92 1.00 1.13 1.14 1.10 1.08 1.04 0.92 0.87 0.88 0.83 0.80 0.74 0.59 0.57 0.51 0.47 0.47 0.43 0.45 0.65 0.85 0.79 0.60 0.47
0.44 0.44 0.47 0.54 0.58 0.57 0.57 0.57 0.54 0.55 0.58 0.65 0.72 0.73 0.86 0.96 1.03 1.04 0.92 0.95 1.08 1.25 1.20 1.11 1.03 0.98 0.81 0.74 0.79 0.81 0.81 0.68 0.59 0.59 0.52 0.48 0.41 0.40 0.54 0.83 0.93 0.77 0.64
0.34 0.33 0.38 0.45 0.52 0.58 0.62 0.66 0.62 0.66 0.67 0.65 0.70 0.68 0.73 0.88 1.04 1.12 1.03 0.97 1.12 1.29 1.43 1.44 1.24 1.12 0.95 0.83 0.83 0.82 0.77 0.75 0.67 0.59 0.56 0.56 0.51 0.42 0.47 0.63 0.85 1.01 0.87
0.27 0.26 0.29 0.34 0.41 0.48 0.57 0.65 0.67 0.69 0.83 0.91 0.79 0.65 0.72 0.85 0.96 1.17 1.24 1.18 1.21 1.35 1.39 1.41 1.37 1.17 1.07 0.99 0.86 0.80 0.72 0.69 0.69 0.56 0.57 0.60 0.64 0.50 0.48 0.44 0.49 0.60 0.68
0.24 0.23 0.25 0.31 0.33 0.36 0.47 0.64 0.73 0.70 0.80 1.01 1.05 1.01 1.05 1.12 1.18 1.33 1.41 1.39 1.39 1.44 1.39 1.48 1.62 1.37 1.14 1.13 1.05 0.88 0.75 0.66 0.66 0.60 0.61 0.58 0.63 0.60 0.53 0.44 0.37 0.23 0.32
0.17 0.19 0.23 0.29 0.32 0.34 0.42 0.53 0.62 0.72 0.90 1.11 1.17 1.22 1.35 1.37 1.40 1.54 1.63 1.65 1.57 1.46 1.47 1.62 1.94 1.80 1.42 1.25 1.25 1.09 0.85 0.68 0.69 0.61 0.58 0.62 0.60 0.62 0.63 0.58 0.44 0.36 0.25
0.10 0.12 0.17 0.26 0.35 0.41 0.47 0.62 0.77 0.99 1.11 1.25 1.40 1.39 1.41 1.46 1.49 1.57 1.78 1.88 1.80 1.75 1.81 1.80 1.97 2.08 1.82 1.58 1.48 1.59 1.32 1.03 0.69 0.53 0.53 0.55 0.60 0.66 0.63 0.68 0.60 0.47 0.39
0.08 0.10 0.17 0.31 0.50 0.70 0.82 1.05 1.33 1.58 1.66 1.58 1.57 1.61 1.59 1.63 1.70 1.66 1.77 1.97 1.93 1.86 1.85 2.00 2.21 2.40 2.31 2.09 1.86 1.87 1.53 1.29 1.16 0.69 0.49 0.51 0.57 0.63 0.66 0.73 0.74 0.63 0.57
0.12 0.20 0.36 0.61 0.91 1.16 1.32 1.51 1.72 1.83 1.87 1.80 1.81 1.79 1.77 1.69 1.62 1.61 1.72 1.93 2.06 2.13 2.14 2.20 2.18 2.40 2.53 2.34 2.28 1.99 1.64 1.45 1.47 1.24 0.79 0.56 0.59 0.60 0.62 0.64 0.66 0.72 0.72
0.39 0.57 0.86 1.12 1.37 1.52 1.58 1.68 1.88 2.03 2.19 2.20 2.08 1.93 1.82 1.78 1.70 1.61 1.66 1.73 1.78 1.85 1.95 2.08 2.14 2.30 2.38 2.46 2.44 2.27 2.02 1.77 1.35 1.30 1.29 1.00 0.77 0.57 0.57 0.64 0.70 0.72 0.75
0.82 1.00 1.20 1.35 1.50 1.51 1.52 1.58 1.71 1.90 2.06 2.08 2.09 2.05 1.92 1.78 1.67 1.58 1.53 1.64 1.66 1.66 1.77 1.88 1.96 2.16 2.29 2.38 2.43 2.28 2.09 1.94 1.69 1.45 1.30 1.23 1.12 0.81 0.64 0.64 0.67 0.72 0.79